DW5673 Weather Reports


Display with metric or nautical units.
time (UTC)temp
F
wind
direction
speed
MPH
gust
MPH
rain 1hr
in
rain 24hr
in
rain mn
in
humidity
%
barometer
mb
20260504003028 65 255 3.0 6.0 0.00 0.04 0.04 57 1005.3
20260504001527 66 239 5.0 11.0 0.00 0.04 0.04 56 1005.5
20260504000027 66 236 3.0 9.0 0.00 0.04 0.04 56 1005.4
20260503234524 67 257 3.0 9.0 0.00 0.04 0.04 55 1005.4
20260503233029 67 238 5.0 9.0 0.00 0.04 0.04 53 1005.4
20260503231513 67 251 3.0 14.0 0.00 0.04 0.04 53 1005.4
20260503230115 67 235 6.0 15.0 0.00 0.04 0.04 51 1005.5
20260503224515 67 236 2.0 9.0 0.00 0.04 0.04 53 1005.8
20260503223013 67 257 5.0 10.0 0.00 0.04 0.04 52 1005.9
20260503221509 66 249 4.0 10.0 0.00 0.04 0.04 53 1006.1
20260503220008 65 237 3.0 9.0 0.00 0.04 0.04 53 1006.2
20260503214507 66 243 3.0 10.0 0.00 0.04 0.04 54 1006.3
20260503213007 66 220 6.0 17.0 0.00 0.04 0.04 54 1006.6
20260503211502 65 252 4.0 12.0 0.00 0.04 0.04 53 1006.9
20260503210100 64 245 6.0 13.0 0.00 0.04 0.04 53 1007.2
20260503204559 64 237 8.0 14.0 0.00 0.04 0.04 50 1007.6
20260503203056 65 258 9.0 15.0 0.00 0.04 0.04 50 1007.8
20260503201555 65 241 8.0 17.0 0.00 0.04 0.04 50 1008.0
20260503200052 65 248 11.0 20.0 0.00 0.04 0.04 53 1008.0
20260503194549 63 236 7.0 22.0 0.00 0.04 0.04 55 1008.3
20260503193049 62 235 10.0 18.0 0.00 0.04 0.04 58 1008.4
20260503191541 61 209 5.0 13.0 0.00 0.04 0.04 65 1008.9
20260503190042 59 199 6.0 24.0 0.00 0.04 0.04 67 1009.0
20260503184531 58 203 6.0 29.0 0.00 0.04 0.04 71 1009.4
20260503183028 56 253 5.0 17.0 0.01 0.04 0.04 78 1009.6
20260503181525 53 222 8.0 22.0 0.01 0.04 0.04 82 1010.0
20260503180020 51 237 5.0 15.0 0.01 0.04 0.04 85 1010.5
20260503174516 49 187 8.0 12.0 0.02 0.04 0.04 89 1011.0
20260503173019 49 235 4.0 14.0 0.01 0.03 0.03 92 1011.7
20260503171510 49 222 4.0 11.0 0.01 0.03 0.03 92 1012.3
20260503081548 45 263 1.0 5.0 0.00 0.00 0.00 69 1015.0
20260503071543 44 268 1.0 3.0 0.00 0.00 0.00 69 1015.1
20260503054532 44 268 0.0 0.0 0.00 0.00 0.00 68 1015.8
20260503053023 45 268 0.0 0.0 0.00 0.00 0.00 65 1016.0
20260503051520 46 268 1.0 4.0 0.00 0.00 0.00 63 1016.0
20260503050020 46 268 1.0 4.0 0.00 0.00 0.00 63 1016.2
20260503044517 46 296 2.0 4.0 0.00 0.00 0.00 67 1016.2
20260503043015 46 303 1.0 3.0 0.00 0.00 0.00 65 1016.2
20260503041514 46 304 1.0 3.0 0.00 0.00 0.00 66 1016.2
20260503040013 46 304 1.0 3.0 0.00 0.00 0.00 66 1016.3
20260503034513 46 304 1.0 3.0 0.00 0.00 0.00 66 1016.4
20260503033021 46 304 1.0 3.0 0.00 0.00 0.00 65 1016.4
20260503031512 47 304 1.0 3.0 0.00 0.00 0.00 65 1016.5
20260503030012 47 304 1.0 3.0 0.00 0.00 0.00 64 1016.5
20260503024509 47 304 1.0 3.0 0.00 0.00 0.00 63 1016.5
20260503023009 47 304 1.0 3.0 0.00 0.00 0.00 63 1016.5
20260503021513 47 304 1.0 2.0 0.00 0.00 0.00 63 1016.5
20260503020008 48 304 0.0 0.0 0.00 0.00 0.00 60 1016.5
20260503014507 49 304 1.0 2.0 0.00 0.00 0.00 58 1016.4
20260503013007 50 304 0.0 1.0 0.00 0.00 0.00 55 1016.3
20260503011506 51 304 0.0 1.0 0.00 0.00 0.00 54 1016.3
20260503010006 52 304 0.0 2.0 0.00 0.00 0.00 51 1016.3
20260503004505 53 304 1.0 2.0 0.00 0.00 0.00 50 1016.3